Location: Madrid
(40.4167°N, 3.7036°W)
Time: 02:37:57
(UTC+00:00)

ISS - Pass Details

Date: 07 May 2026
Orbit: 414 x 424 km, 51.6° (Epoch: 15 May)

Event Time Altitude Azimuth Distance (km) Brightness Sun altitude
Rises 21:11:27 0° 231° (SW) 2,337 0.1 -19.0°
Reaches altitude 10° 21:13:31 10° 231° (SW) 1,478 -0.9 -19.3°
Enters shadow 21:16:45 83° 202° (SSW) 420 -3.9 -19.7°
